Dean International
Flight School

Career Spotlight

Mika

Mika

Congratulations to Mika from Khazakstan. She recently sent us this photo of her flying an Airbus airliner.

More...
Mika's Success Story
close

Congratulations to Mika from Khazakstan. She recently sent us this photo of her flying an Airbus airliner.

Mario

Mario

My dreams could not have been realized if I wouldn't have been part of the Dean International family.

More...
Mario's Success Story
close

"My dreams could not have been realized if I wouldn't have been part of the Dean International family. Thank you Robert, thanks to all my co-workers, and thanks to all of my students!"

Fernando

Fernando

I am now working as a First Officer at TACA and am enjoying every moment of it.

More...
Fernando's Success Story
close

"Will never forget my time of flight training at Dean International. I am now working as a First Officer at TACA and am enjoying every moment of it."

Alvaro

Alvaro

Because of the flight time I was able to built while instructing, I got the experience needed to apply to an airline in Colombia.

More...
Alvaro's Success Story
close

Dean alumnus Alvaro Londoño currently flies with Tampa Cargo. He says of his experience at Dean: "I want to take this opportunity to thank you for giving me the chance to build my experience and expand my knowledge in Dean International. Because of the flight time I was able to built flight instructing, I got the experience needed to apply to an airline in Colombia."

Ralph

Ralph

Every Aruban student of Dean International has made it into Tiara Air Aruba, that is very nice.

More...
Ralph's Success Story
close

"Next to me is my Co-Pilot, Elison. This picture was taken on our first flight together, which was almost exactly 5 years after I finished at Dean International. [...] Every Aruban student of Dean International has made it into Tiara Air Aruba. [...] The future looks bright here in Aruba."

Rohaan

Rohaan

The [..] staff will all work diligently to help you finish your certificates as safely and efficiently as possible.

More...
Rohaan's Success Story
close

After receiving very hard times from other flight schools [...], I came to Dean International where Robert Dean personally sat down with me and gave me a financial and chronological look into how much remained to finish my private pilot certificate. Through his hard efforts as an instructor and mentor, I was able to finish my private pilot certificate within one week.

Welcome to Dean International

In over two decades, Dean International has educated over 7,000 pilots from all over the world, including over 1,000 students from India alone. By offering a great training experience, a friendly service staff, an ample variety of aircraft, and by improving constantly, we have become one of the largest, most prestigious FAA 141-approved flight schools in North America. Located in Miami, Florida, USA, our flight school offers an ideal location for year-round, "learn to fly" weather, flight training. Dean International is not only well-equipped to provide services to professional trainees but also caters to General Aviation renters. Visit or contact our headquarters at Kendall-Tamiami Executive Airport located in Miami, FL today to learn more about us, or simply read more about our programs if you are an international student interested in joining our school.

Local Airport Information
TAF FOR KTMB (Issued: Wed, October 22nd 2014 9:12 AM UTC)
TAF
      AMD KTMB 220909Z 2209/2306 VRB03KT P6SM BKN120
      FM221300 VRB04KT P6SM VCSH SCT030 BKN200
      FM221700 10006KT P6SM VCTS SCT025CB BKN035
      FM230000 VRB02KT P6SM VCSH SCT030 BKN045
     
METAR FOR KTMB (Issued: Wed, October 22nd 2014 8:53 AM UTC):
KTMB 220853Z AUTO 36004KT 10SM BKN120 24/22 A2992 RMK AO2 SLP130 T02390222 55002

This weather information is provided by the National Weather Service.
It is automatically refreshed every three minutes.
TAF FOR KHST (Issued: Wed, October 22nd 2014 8:06 AM UTC)
TAF KHST 2208/2314 06007KT 9999 SCT070 SCT200 QNH2990INS
      BECMG 2212/2213 11009KT 9999 VCSH SCT050 SCT100 QNH2989INS
      TEMPO 2217/2221 10009KT 8000 -RA VCTS SCT040CB BKN070 TX29/2220Z TN21/2210Z
     
METAR FOR KHST (Issued: Wed, October 22nd 2014 8:58 AM UTC):
KHST 220858Z AUTO 00000KT 10SM SCT120 23/22 A2991 RMK AO2 SLP132 60000 T02300222 55004

This weather information is provided by the National Weather Service.
It is automatically refreshed every three minutes.
TAF FOR KOPF (Issued: Wed, October 22nd 2014 9:12 AM UTC)
TAF
      AMD KOPF 220909Z 2209/2306 VRB03KT P6SM BKN150
      FM221300 VRB04KT P6SM VCSH SCT030 BKN200
      FM221800 12006KT P6SM VCTS SCT025CB BKN035
      FM230000 VRB03KT P6SM VCSH SCT030 BKN045
     
METAR FOR KOPF (Issued: Wed, October 22nd 2014 8:53 AM UTC):
KOPF 220853Z AUTO 00000KT 10SM FEW032 23/22 A2992 RMK AO2 SLP132 T02330217 55002

This weather information is provided by the National Weather Service.
It is automatically refreshed every three minutes.
TAF FOR KMIA (Issued: Wed, October 22nd 2014 9:15 AM UTC)
TAF
      AMD KMIA 220909Z 2209/2306 VRB03KT P6SM SCT030 BKN150
      FM221300 VRB03KT P6SM VCSH SCT030 BKN200
      FM221800 12008KT P6SM VCTS SCT025CB BKN035
      FM230000 VRB03KT P6SM VCSH SCT030 BKN045
     
METAR FOR KMIA (Issued: Wed, October 22nd 2014 8:53 AM UTC):
KMIA 220853Z 00000KT 10SM BKN031 OVC120 24/22 A2992 RMK AO2 SLP130 T02390217 53000

This weather information is provided by the National Weather Service.
It is automatically refreshed every three minutes.
Design by Ariel Llizo
© Dean International Inc. 2012